Precipitable_Water
1.02 1.02 0.97 0.96 0.92 0.87 0.86 0.88 0.91 0.89 0.90 0.93 0.93 0.93 0.91 0.88 0.87 0.80 0.79 0.87 0.96 0.98 0.98 0.99 0.99 0.96 0.96 0.98 1.00 1.00 0.99 0.98 0.97 0.98 0.98 0.98 0.97 0.98 0.98 1.00 1.02 1.02
1.03 1.03 1.02 0.99 0.92 0.88 0.89 0.93 0.91 0.89 0.89 0.94 0.96 0.94 0.92 0.88 0.85 0.81 0.76 0.81 0.88 0.94 0.96 0.97 0.98 0.95 0.93 0.93 0.95 0.93 0.92 0.91 0.88 0.93 0.91 0.92 0.94 0.96 0.97 0.99 1.00 1.02
1.06 1.03 1.00 0.94 0.87 0.86 0.91 0.94 0.93 0.91 0.92 0.97 0.99 0.97 0.93 0.92 0.86 0.81 0.77 0.77 0.78 0.81 0.84 0.90 0.91 0.89 0.89 0.89 0.91 0.89 0.85 0.83 0.82 0.86 0.87 0.88 0.91 0.92 0.95 0.98 0.99 1.00
1.04 1.03 0.99 0.91 0.88 0.89 0.92 0.92 0.92 0.94 0.97 0.98 0.99 0.99 0.96 0.93 0.87 0.80 0.74 0.73 0.73 0.75 0.78 0.83 0.85 0.84 0.83 0.82 0.84 0.84 0.82 0.81 0.83 0.85 0.85 0.85 0.86 0.86 0.89 0.94 0.96 0.98
1.02 0.99 0.93 0.90 0.90 0.91 0.93 0.90 0.90 0.93 0.98 1.00 1.02 1.02 0.98 0.95 0.89 0.80 0.75 0.70 0.70 0.70 0.71 0.74 0.79 0.78 0.76 0.72 0.75 0.76 0.79 0.81 0.83 0.82 0.80 0.80 0.83 0.83 0.85 0.88 0.90 0.91
1.03 0.99 0.96 0.94 0.91 0.90 0.90 0.89 0.92 0.96 1.00 1.00 1.01 1.02 0.99 0.95 0.90 0.81 0.74 0.70 0.67 0.66 0.65 0.66 0.71 0.71 0.68 0.66 0.70 0.71 0.73 0.73 0.74 0.74 0.75 0.75 0.78 0.83 0.83 0.85 0.88 0.89
1.01 1.00 0.98 0.97 0.92 0.88 0.87 0.89 0.93 0.98 1.01 1.04 1.05 1.03 1.00 0.94 0.87 0.79 0.74 0.69 0.64 0.62 0.62 0.63 0.68 0.69 0.67 0.67 0.67 0.70 0.72 0.70 0.69 0.71 0.71 0.72 0.75 0.76 0.79 0.83 0.87 0.90
0.99 0.99 0.98 0.96 0.88 0.84 0.84 0.87 0.91 0.96 1.00 1.02 1.04 1.05 1.01 0.94 0.85 0.75 0.70 0.69 0.64 0.61 0.62 0.65 0.68 0.68 0.67 0.66 0.66 0.65 0.68 0.71 0.66 0.67 0.67 0.68 0.71 0.70 0.71 0.77 0.85 0.88
0.98 0.98 0.99 0.95 0.85 0.82 0.84 0.87 0.92 0.96 1.01 1.02 1.05 1.04 1.01 0.91 0.80 0.73 0.71 0.69 0.65 0.63 0.62 0.63 0.67 0.69 0.69 0.66 0.63 0.62 0.62 0.67 0.68 0.63 0.63 0.64 0.65 0.64 0.64 0.69 0.76 0.81
0.97 0.98 0.98 0.95 0.88 0.87 0.88 0.92 0.95 0.98 1.02 1.04 1.06 1.03 0.91 0.85 0.82 0.77 0.74 0.70 0.66 0.63 0.61 0.59 0.60 0.61 0.62 0.62 0.61 0.59 0.60 0.64 0.69 0.66 0.63 0.60 0.59 0.59 0.60 0.63 0.70 0.76
1.04 1.02 0.97 0.96 0.95 0.93 0.94 0.99 1.02 1.02 1.03 1.02 1.00 0.91 0.87 0.85 0.83 0.79 0.75 0.71 0.64 0.61 0.58 0.56 0.53 0.53 0.52 0.54 0.57 0.59 0.61 0.63 0.66 0.66 0.63 0.58 0.55 0.54 0.56 0.60 0.64 0.72
1.10 1.07 1.06 1.04 1.02 1.00 1.01 1.05 1.06 1.02 1.02 1.00 0.95 0.87 0.86 0.86 0.82 0.78 0.73 0.69 0.65 0.60 0.58 0.56 0.54 0.53 0.50 0.50 0.54 0.58 0.61 0.62 0.64 0.64 0.61 0.57 0.55 0.54 0.54 0.59 0.63 0.66
1.12 1.10 1.10 1.08 1.08 1.08 1.10 1.10 1.07 1.04 1.02 0.98 0.95 0.90 0.88 0.84 0.81 0.75 0.72 0.69 0.64 0.59 0.55 0.55 0.55 0.54 0.52 0.52 0.53 0.55 0.57 0.57 0.59 0.61 0.58 0.56 0.56 0.55 0.57 0.60 0.63 0.64
1.17 1.17 1.16 1.15 1.15 1.15 1.15 1.13 1.09 1.08 1.06 1.03 1.01 0.95 0.94 0.89 0.82 0.75 0.71 0.69 0.65 0.60 0.56 0.55 0.55 0.55 0.55 0.56 0.55 0.54 0.53 0.53 0.54 0.58 0.59 0.60 0.60 0.61 0.61 0.62 0.63 0.63
1.21 1.23 1.21 1.20 1.22 1.18 1.16 1.11 1.08 1.10 1.12 1.10 1.07 1.03 1.02 0.96 0.88 0.79 0.74 0.68 0.64 0.61 0.59 0.59 0.57 0.55 0.57 0.57 0.56 0.56 0.57 0.56 0.55 0.57 0.61 0.64 0.66 0.66 0.65 0.64 0.64 0.64
1.16 1.17 1.18 1.16 1.15 1.14 1.10 1.12 1.08 1.06 1.08 1.08 1.06 1.08 1.06 0.98 0.88 0.83 0.78 0.70 0.64 0.62 0.61 0.62 0.63 0.63 0.62 0.61 0.60 0.59 0.58 0.58 0.58 0.58 0.63 0.67 0.67 0.68 0.68 0.66 0.65 0.64
1.16 1.17 1.19 1.15 1.14 1.13 1.13 1.11 1.09 1.08 1.08 1.07 1.07 1.07 1.05 0.97 0.91 0.84 0.78 0.70 0.64 0.63 0.63 0.64 0.65 0.67 0.68 0.65 0.62 0.62 0.62 0.61 0.61 0.62 0.66 0.67 0.67 0.65 0.64 0.64 0.65 0.65
1.12 1.11 1.12 1.15 1.16 1.15 1.14 1.13 1.11 1.09 1.08 1.07 1.07 1.06 1.03 0.97 0.91 0.88 0.83 0.76 0.68 0.65 0.64 0.66 0.68 0.70 0.70 0.70 0.70 0.67 0.64 0.63 0.62 0.61 0.63 0.65 0.66 0.64 0.63 0.63 0.62 0.63
1.06 1.07 1.06 1.06 1.09 1.10 1.10 1.08 1.05 1.03 1.04 1.04 1.03 1.03 0.99 0.92 0.88 0.86 0.83 0.81 0.76 0.71 0.70 0.72 0.73 0.75 0.73 0.71 0.71 0.71 0.70 0.69 0.66 0.64 0.62 0.62 0.63 0.62 0.61 0.61 0.62 0.61
0.96 0.97 0.98 0.98 1.00 1.01 1.01 0.99 0.97 0.96 0.98 0.99 0.99 0.99 0.96 0.91 0.88 0.84 0.82 0.82 0.82 0.81 0.79 0.80 0.79 0.79 0.79 0.79 0.77 0.74 0.72 0.71 0.70 0.70 0.69 0.68 0.67 0.66 0.65 0.64 0.63 0.61
0.88 0.91 0.91 0.93 0.96 0.97 0.96 0.95 0.94 0.94 0.92 0.91 0.92 0.93 0.91 0.89 0.87 0.86 0.86 0.85 0.85 0.85 0.84 0.83 0.82 0.82 0.80 0.79 0.79 0.79 0.77 0.74 0.71 0.71 0.70 0.70 0.71 0.71 0.70 0.69 0.69 0.69
0.82 0.84 0.86 0.87 0.89 0.92 0.91 0.92 0.94 0.92 0.90 0.90 0.91 0.91 0.89 0.86 0.84 0.86 0.87 0.88 0.89 0.90 0.88 0.86 0.86 0.86 0.86 0.86 0.85 0.84 0.83 0.80 0.76 0.72 0.70 0.70 0.70 0.71 0.72 0.73 0.74 0.73
0.76 0.77 0.79 0.81 0.82 0.83 0.85 0.85 0.87 0.86 0.86 0.87 0.87 0.88 0.85 0.84 0.84 0.84 0.84 0.84 0.85 0.87 0.87 0.85 0.86 0.87 0.87 0.88 0.90 0.92 0.91 0.88 0.85 0.82 0.78 0.74 0.72 0.73 0.73 0.73 0.74 0.75
0.70 0.71 0.73 0.74 0.76 0.77 0.78 0.79 0.80 0.82 0.82 0.83 0.82 0.82 0.83 0.83 0.84 0.84 0.84 0.83 0.81 0.80 0.81 0.79 0.79 0.81 0.81 0.82 0.83 0.85 0.89 0.90 0.91 0.88 0.85 0.83 0.82 0.82 0.81 0.80 0.82 0.82
0.69 0.69 0.69 0.70 0.71 0.72 0.73 0.73 0.75 0.77 0.78 0.79 0.78 0.78 0.76 0.76 0.78 0.77 0.78 0.78 0.78 0.77 0.77 0.75 0.75 0.76 0.77 0.77 0.78 0.79 0.80 0.83 0.86 0.88 0.87 0.86 0.85 0.84 0.87 0.90 0.93 0.97
0.71 0.70 0.69 0.68 0.68 0.68 0.68 0.69 0.69 0.69 0.69 0.69 0.71 0.71 0.70 0.70 0.70 0.70 0.70 0.70 0.71 0.71 0.71 0.73 0.72 0.71 0.72 0.72 0.72 0.73 0.75 0.77 0.78 0.78 0.79 0.83 0.88 0.88 0.87 0.89 0.90 0.93
Wind_Speed
19 18 17 15 14 13 12 11 10 9 9 8 8 8 7 7 7 7 7 7 7 8 8 9 9 9 10 10 10 10 10 10 10 10 10 11 11 11 11 11 11 11
18 18 17 15 14 13 12 11 10 9 8 8 7 7 7 7 7 7 7 7 7 7 8 8 8 9 9 10 10 10 10 10 10 10 10 10 10 10 11 11 11 11
18 18 17 16 15 14 12 11 10 9 8 8 7 7 7 7 7 8 8 8 7 8 8 8 9 9 9 9 9 9 9 9 9 9 9 9 9 10 10 10 10 10
18 17 17 16 15 14 13 12 11 10 9 8 8 8 8 8 8 8 8 9 8 8 8 9 9 9 8 8 8 8 8 8 8 8 8 8 8 9 9 9 10 10
17 17 16 16 15 15 14 13 12 11 10 10 9 9 9 9 9 9 9 9 9 9 9 9 9 9 8 8 8 8 8 8 8 8 8 7 7 8 8 9 9 10
17 16 16 16 15 15 14 13 13 12 11 10 10 10 10 10 10 9 10 10 9 9 9 9 10 9 8 8 8 7 7 7 7 7 7 7 7 7 7 8 9 9
16 16 16 15 15 15 14 14 13 12 11 11 10 10 10 10 10 10 10 10 10 10 10 10 10 10 9 8 8 8 8 8 8 8 7 7 7 7 7 8 8 9
16 16 15 15 15 15 15 15 14 12 12 12 11 11 11 10 10 10 10 10 10 10 10 10 11 10 10 9 8 8 8 8 8 8 8 8 8 8 8 8 8 9
16 16 15 15 15 16 16 15 14 13 12 12 12 11 11 11 11 10 10 10 10 10 10 10 11 11 11 10 10 10 10 10 9 9 9 9 9 8 8 8 9 10
17 16 16 16 16 16 16 16 15 14 13 12 11 12 12 11 11 11 11 11 11 11 10 11 11 12 12 12 11 11 11 11 11 10 10 10 10 9 9 9 9 10
17 17 17 16 16 16 16 16 16 15 14 12 12 12 12 11 11 11 12 12 11 11 11 11 12 12 12 12 12 12 12 12 12 12 11 11 11 10 10 10 10 10
17 17 17 16 16 16 16 16 16 15 14 14 13 13 12 12 11 11 11 11 11 11 12 12 12 12 12 12 12 12 12 12 12 12 12 12 12 12 12 11 11 11
17 17 17 16 16 16 16 16 15 15 14 14 15 14 13 12 12 11 11 11 10 11 12 12 13 13 13 13 13 13 13 13 13 13 13 13 13 13 13 13 12 12
18 18 17 17 17 17 17 17 17 16 16 16 16 16 14 13 13 12 11 11 10 11 11 12 13 13 13 13 13 13 13 13 14 14 13 13 13 13 13 14 14 13
18 19 19 18 18 18 18 19 19 19 18 18 18 17 15 14 14 13 12 11 11 11 11 12 12 13 14 14 14 14 13 13 14 14 14 14 14 14 14 14 14 14
14 15 16 16 16 15 15 16 17 17 17 17 17 16 15 15 15 14 13 12 12 12 12 12 13 13 13 14 14 14 14 14 15 15 15 15 15 15 15 15 15 15
11 12 12 12 13 12 12 13 13 14 15 15 14 14 14 15 15 14 13 13 12 13 13 13 13 13 13 13 14 14 15 15 16 16 16 16 16 16 16 16 16 16
9 10 10 10 10 10 10 10 11 11 12 12 13 13 14 14 14 14 13 12 12 13 14 14 14 14 14 14 15 15 15 16 16 17 17 17 17 17 17 17 17 18
8 9 9 9 9 10 10 10 10 10 11 12 12 12 13 13 13 13 13 13 13 13 14 15 15 15 16 16 16 17 17 18 18 18 18 18 18 18 18 19 19 20
6 7 8 8 8 9 9 10 10 11 11 12 12 12 13 13 13 14 14 14 14 14 15 16 16 16 17 17 18 18 19 20 20 20 20 20 20 20 20 20 21 22
6 6 7 7 8 8 9 9 10 11 11 12 13 13 13 13 13 14 14 15 15 16 16 17 17 17 18 18 19 19 20 20 21 22 23 23 23 23 23 23 23 23
6 6 6 7 7 8 9 9 10 10 11 12 13 13 14 14 15 15 15 16 16 17 18 18 18 18 19 19 20 20 21 21 22 23 24 25 26 26 26 26 26 26
6 6 6 7 7 8 9 10 10 11 12 13 14 14 14 15 16 16 17 17 17 18 18 18 19 19 19 20 21 21 22 23 24 24 25 26 27 28 28 29 29 29
7 7 8 8 9 9 10 11 12 12 13 14 15 15 16 16 16 17 18 18 18 18 19 19 20 20 21 21 22 23 24 24 25 26 27 28 28 29 29 30 30 31
9 10 10 10 10 11 11 12 13 14 15 16 16 17 17 18 18 19 19 20 20 20 20 21 22 22 23 23 23 24 25 26 27 28 29 29 30 30 31 31 31 32
11 12 12 13 13 13 14 14 15 16 16 17 18 19 19 20 20 21 21 22 22 22 23 23 24 25 25 26 26 27 28 28 29 30 31 32 32 32 33 33 33 33
Wind_Direction
197 199 201 202 203 205 206 207 210 213 218 222 226 231 237 242 245 247 249 248 245 242 241 242 243 243 242 239 239 240 240 241 242 242 241 240 238 237 236 237 236 235
198 200 201 202 203 204 206 208 211 214 219 223 227 231 237 245 249 250 251 248 244 243 242 243 245 245 245 242 240 240 240 242 242 241 239 238 236 235 233 233 231 229
199 200 201 203 204 206 209 210 212 217 222 227 232 236 240 248 253 252 251 249 247 246 245 245 245 246 245 244 242 240 238 238 238 237 236 235 235 233 231 229 226 223
200 202 204 206 208 211 213 213 216 223 230 235 239 242 246 251 257 255 252 251 250 249 250 247 244 243 242 242 240 238 236 235 235 234 233 234 233 231 229 226 222 220
201 204 206 209 212 215 216 218 222 229 235 241 244 246 249 253 258 257 252 250 250 250 250 247 243 239 238 237 235 233 233 232 232 231 229 230 229 227 225 222 218 216
202 205 208 212 215 219 221 224 228 232 236 241 244 247 251 255 258 256 250 248 248 248 248 244 240 236 235 234 231 230 231 230 229 227 224 223 221 220 220 219 216 215
204 206 209 213 218 221 224 225 229 233 236 241 244 247 251 256 258 255 250 246 244 244 243 240 238 234 233 232 230 230 231 231 228 223 220 218 215 216 218 219 218 216
208 209 213 218 221 223 225 227 231 234 238 242 244 247 252 255 255 252 249 245 243 242 240 238 237 234 233 233 233 233 232 232 229 223 221 219 216 216 219 221 221 217
213 215 218 222 223 225 227 229 231 234 239 243 245 248 251 252 252 250 247 244 242 241 239 238 238 237 238 239 238 236 234 233 231 226 223 223 220 219 221 223 222 218
217 218 221 224 226 227 229 230 233 236 240 244 246 246 247 248 250 249 245 241 240 240 238 237 238 240 242 243 241 238 235 232 231 229 226 225 225 225 225 226 224 220
220 220 223 225 226 228 229 231 234 236 239 243 244 244 245 247 250 250 246 240 238 238 238 237 238 240 242 242 240 238 234 233 232 230 228 228 229 229 228 227 225 222
224 224 225 226 226 227 228 231 233 236 239 241 240 241 244 247 250 250 246 240 237 239 240 238 238 239 241 241 239 236 235 235 234 232 231 231 230 231 230 229 227 225
227 227 228 228 227 227 229 232 234 237 240 239 236 238 243 247 248 248 243 239 239 243 243 240 239 240 241 240 239 237 237 237 236 235 234 233 233 233 232 231 231 230
230 231 231 231 230 232 234 236 239 242 243 239 236 238 241 244 246 246 242 240 242 245 244 242 240 239 239 239 238 238 238 239 238 236 236 235 236 236 234 234 235 236
234 234 235 235 236 238 239 240 245 248 246 242 241 239 238 240 243 242 241 242 246 248 246 243 240 239 238 238 238 238 240 241 240 238 237 238 238 238 237 238 239 241
232 231 231 233 235 238 239 242 245 245 241 242 242 237 235 239 242 241 243 246 248 248 246 244 241 239 239 240 240 241 243 244 242 239 237 238 238 239 240 241 242 244
226 222 223 227 230 234 238 240 240 238 236 237 235 231 234 241 242 243 246 248 247 245 244 241 240 242 243 244 244 245 245 246 244 241 238 238 239 241 242 244 245 247
220 217 220 226 228 230 232 231 229 230 229 227 227 230 236 240 241 241 243 243 245 245 242 239 242 248 251 250 248 248 248 248 246 243 241 241 242 244 245 247 248 250
216 215 220 225 226 226 228 227 225 227 227 227 231 237 238 238 239 239 239 242 246 246 243 242 247 254 256 254 253 251 251 250 248 245 244 245 246 248 249 251 252 253
215 217 220 225 227 227 228 228 228 230 232 234 238 240 238 239 242 242 243 246 247 247 247 247 251 257 259 258 257 255 253 252 251 250 249 249 251 252 254 255 256 256
213 218 222 227 231 233 234 235 235 236 238 240 242 242 241 243 246 248 248 249 249 248 249 250 254 258 259 259 258 257 255 253 253 253 253 254 255 256 258 260 260 260
216 219 223 230 236 240 243 243 242 241 242 244 246 247 248 250 251 252 253 254 253 252 253 254 257 260 261 260 260 259 257 255 255 255 256 257 258 259 261 262 263 263
222 226 234 243 248 248 248 247 245 245 246 248 250 252 254 255 255 255 256 257 257 257 258 259 260 262 263 262 262 261 259 258 259 259 259 260 260 261 263 264 264 263
237 245 252 256 257 254 252 251 250 250 251 253 254 255 256 256 256 256 257 257 258 258 260 260 261 263 265 264 264 263 262 261 262 262 262 262 262 263 264 265 265 264
255 259 260 261 262 261 259 257 256 256 256 257 257 257 258 258 258 258 258 258 258 259 261 262 263 264 265 266 266 266 265 264 264 265 264 264 263 264 264 264 265 265
263 264 263 263 264 265 264 264 263 262 262 262 261 260 260 260 260 260 261 261 261 262 263 265 266 266 267 268 268 269 268 267 266 267 267 266 266 265 264 264 265 266